Tracking 19827 objects as of 21-Aug-2019
HD Live streaming from Space Station
objects crossing your sky now

FENGYUN 1C DEB

Track FENGYUN 1C DEB now!
10-day predictions


NORAD ID: 30320
Int'l Code: 1999-025AAH
Perigee: 846.6 km
Apogee: 975.0 km
Inclination: 99.4 °
Period: 103.1 minutes
Semi major axis: 7281 km
RCS: 0.0266 m2 (small)
Launch date: May 10, 1999
Source: People's Republic of China (PRC)
Launch site: Taiyaun Space Center, China (TSC)

Note: This is SATELLITE DEBRIS
aabbcc
Your satellite tracking list
Your tracking list is empty




NASA's NSSDC Master Catalog

Two Line Element Set (TLE):
1 30320U 99025AAH 19233.21369394  .00000334  00000-0  26311-3 0  9994
2 30320  99.3803 226.0354 0088192  96.3296 326.2245 13.97160608642116
Source of the keplerian elements: AFSPC